GFSSW_700_temp_027.txt.gz
Temp
12 12 12 12 12 13 13 13 13 13 14 14 14 14 15 15 15 15 15 15 16 16 16 15 16 15 16 15 17 16 19 19 19 19 18 18 18 16 15 14 14 13 13 12 14
12 12 12 12 12 13 13 13 13 13 14 14 14 15 15 15 15 15 15 15 16 16 16 15 15 15 15 16 17 17 19 19 18 18 18 17 17 17 16 15 14 14 14 14 14
12 12 12 12 12 13 13 13 13 13 14 14 14 14 15 15 15 15 16 16 16 16 16 16 15 14 16 17 17 18 19 18 18 17 17 18 18 17 17 17 15 13 14 14 13
11 12 12 12 12 13 13 13 13 13 14 14 14 14 14 15 14 15 16 16 16 16 16 15 15 15 16 17 16 18 17 17 17 17 17 17 17 17 17 16 15 14 14 14 14
11 12 12 12 12 13 13 13 13 13 14 14 14 14 14 14 14 15 15 16 16 16 16 15 14 15 16 17 16 17 17 17 17 17 17 17 17 17 17 16 15 13 14 13 12
11 11 12 12 12 13 13 13 13 14 14 14 14 14 14 13 14 14 15 15 16 16 16 15 15 14 16 16 16 17 16 17 17 17 17 17 17 17 16 15 15 14 13 12 11
10 11 11 12 12 13 13 13 13 13 14 14 14 14 14 13 14 14 14 15 16 15 14 16 16 15 15 16 16 16 16 18 18 17 18 17 18 17 16 16 14 13 14 12 11
10 10 11 11 12 12 13 13 13 13 14 14 14 14 13 14 14 14 14 15 15 15 15 16 16 15 15 16 16 17 18 18 19 18 18 17 18 17 16 16 14 15 14 12 13
10 10 11 11 11 12 13 13 13 13 13 14 14 14 13 14 14 14 14 14 15 15 15 15 16 15 16 16 18 18 19 19 19 17 17 18 18 17 16 16 14 16 14 13 14
9 10 10 11 11 12 12 12 13 13 13 13 13 14 14 14 14 14 14 14 14 14 15 15 15 16 17 18 19 20 20 20 19 18 17 18 18 18 16 16 15 13 14 14 14
9 10 10 10 11 11 11 12 12 12 13 13 12 13 14 14 14 14 14 14 14 14 14 14 16 17 18 18 17 17 18 18 18 18 17 18 18 18 17 16 15 14 16 15 14
9 10 10 10 10 11 11 11 12 12 13 12 13 13 14 14 13 14 14 14 13 14 15 15 16 17 16 16 16 17 18 18 18 17 17 18 18 18 18 16 16 15 13 14 12
9 9 10 10 10 10 11 11 12 12 12 13 13 13 13 14 13 13 14 13 14 14 15 16 17 16 15 16 16 17 18 18 18 18 17 18 18 18 18 16 16 15 15 12 12
8 9 9 10 10 10 10 11 11 12 12 14 14 13 13 13 13 13 14 13 14 15 16 16 16 15 15 16 16 18 17 17 17 17 19 18 20 19 18 18 16 15 14 14 12
8 8 9 9 10 9 11 10 11 11 15 14 13 13 13 13 15 13 13 13 14 15 15 16 15 15 15 16 16 17 16 16 17 17 18 19 19 20 18 18 18 16 15 14 12
8 8 8 9 9 9 10 10 10 11 15 14 13 13 13 13 14 14 13 13 14 14 14 16 15 15 16 16 15 16 16 16 17 18 19 19 19 20 19 18 17 16 14 14 12
7 8 8 8 9 9 9 9 10 13 14 14 13 13 14 14 14 13 13 13 14 14 15 15 15 15 15 16 15 15 16 18 19 20 21 19 19 19 18 17 16 16 15 13 13
7 7 8 8 9 9 9 8 11 14 14 13 14 14 15 15 15 14 14 14 14 15 17 17 17 16 15 15 16 16 17 18 19 20 19 18 19 18 17 17 16 14 14 13 13
6 7 7 8 8 8 8 9 12 14 13 13 13 14 14 15 15 14 14 15 15 15 16 17 17 16 15 15 15 16 16 17 18 19 19 20 20 18 17 17 16 15 15 13 12
6 7 7 7 8 8 7 10 12 11 11 11 13 14 15 15 14 15 15 15 15 15 15 16 16 16 15 15 15 16 17 17 17 18 18 20 19 19 17 17 16 16 15 15 14
6 5 7 7 7 7 7 10 11 10 10 11 13 13 14 15 15 15 16 15 15 15 15 15 15 16 15 15 16 16 15 16 18 18 19 19 17 16 17 17 16 15 15 15 15
5 5 5 6 7 6 8 10 10 9 9 10 11 12 13 13 14 15 15 15 14 15 15 15 15 16 16 17 16 16 17 17 17 18 18 18 19 17 17 16 16 15 16 15 14
3 4 5 6 6 8 8 9 9 9 9 10 11 10 11 12 13 14 15 14 13 14 15 15 15 16 16 17 16 15 16 16 16 16 17 17 18 17 16 16 16 15 15 15 14
4 4 3 5 6 6 8 7 8 8 9 10 10 10 10 11 11 13 13 12 12 13 13 14 15 15 17 15 16 16 16 16 16 17 17 18 18 17 17 16 15 14 16 15 15
2 4 4 5 6 6 7 7 8 8 7 8 9 9 10 11 12 11 13 13 12 12 13 13 13 15 15 16 16 17 17 16 16 16 17 18 13 15 15 15 14 14 15 15 14
1 1 2 4 3 4 5 6 7 8 8 8 8 9 10 10 11 11 12 12 13 12 12 12 13 13 15 16 16 16 16 16 16 16 16 17 17 16 14 15 14 14 15 15 14
2 2 2 3 3 4 6 6 6 7 7 7 8 9 9 9 10 9 9 9 9 10 12 12 12 13 14 15 16 16 16 16 16 16 16 17 16 14 14 15 15 14 15 14 14

GFSSW_700_temp_030.txt.gz
Temp
12 12 12 12 12 12 13 13 13 13 14 14 14 14 15 15 15 15 16 16 16 16 16 16 16 16 17 17 17 17 16 19 20 19 19 19 18 17 16 15 15 14 14 14 14
11 12 12 12 12 12 13 13 13 14 14 14 14 15 15 15 15 16 15 15 16 16 16 16 15 16 16 17 18 17 17 17 19 19 19 18 18 18 17 14 14 15 15 14 14
11 12 12 12 12 13 13 13 13 14 14 14 15 15 15 15 15 15 16 16 16 16 16 16 15 15 16 18 18 15 16 19 19 18 18 19 18 18 17 16 14 15 15 15 14
11 12 12 12 12 13 13 13 13 14 14 14 14 15 15 15 14 15 16 16 16 16 16 16 16 16 17 18 18 18 18 19 18 18 18 18 18 19 18 16 15 15 15 15 14
11 12 12 12 12 13 13 13 13 13 14 14 14 14 15 15 14 15 16 16 16 16 16 14 15 16 18 18 18 18 18 18 18 18 18 18 18 18 18 16 15 15 15 14 13
11 12 12 12 12 13 13 13 13 13 14 14 14 14 14 14 14 15 16 16 16 16 14 14 16 16 17 17 18 18 18 18 18 18 18 18 18 18 17 16 15 14 13 12 11
11 11 12 12 12 13 13 13 13 13 14 14 14 14 14 13 14 15 15 16 16 16 14 14 14 15 17 17 17 17 18 18 19 19 18 18 18 17 17 16 15 14 13 12 12
10 11 11 12 12 12 13 13 13 13 14 14 14 14 14 15 14 15 15 15 15 16 16 16 16 15 16 17 17 18 18 19 20 19 19 18 17 17 17 16 15 14 13 13 12
10 10 11 12 12 12 12 13 13 13 13 13 14 14 13 14 15 15 15 14 15 15 16 16 16 15 17 17 18 19 19 20 20 19 19 19 19 18 18 17 15 14 14 13 12
10 10 11 11 12 12 12 13 13 13 13 13 14 14 15 14 14 15 15 15 15 15 15 16 16 16 17 18 19 20 20 21 20 20 19 19 19 19 17 17 16 14 13 12 11
9 10 11 11 11 12 12 12 12 12 13 14 12 14 13 13 15 15 15 15 14 14 15 15 16 17 18 19 19 18 19 20 20 19 18 19 19 19 18 17 17 15 14 13 11
9 10 10 11 11 11 11 11 11 12 13 14 14 13 13 13 14 15 14 14 14 15 15 16 17 18 18 17 18 18 19 19 19 19 18 18 19 19 19 18 17 16 15 14 12
9 9 10 10 11 11 11 11 12 12 12 14 13 13 13 14 14 14 14 14 15 15 16 17 18 17 17 17 17 18 18 19 19 19 19 19 19 19 19 18 17 17 16 15 12
9 9 10 10 10 11 10 11 11 11 11 14 14 14 13 13 14 15 14 14 15 16 16 17 17 17 17 17 17 18 19 19 18 18 19 20 20 20 19 18 17 17 16 15 14
8 9 9 9 9 9 10 11 11 11 14 16 14 14 14 14 16 15 14 14 15 16 17 17 17 17 17 17 18 18 18 18 18 18 19 19 20 19 19 19 18 17 16 15 14
8 8 9 9 9 9 10 10 10 10 14 15 14 14 14 14 15 15 14 14 15 16 16 17 17 17 17 17 17 17 17 17 18 18 19 20 20 20 19 18 18 17 16 15 14
7 8 8 9 9 10 10 9 9 12 14 16 15 15 15 15 15 15 15 14 15 15 16 16 17 16 16 17 17 17 17 18 19 19 18 17 19 20 19 18 17 17 16 15 14
7 8 8 8 9 9 9 8 10 13 14 16 16 15 15 15 15 16 15 15 15 16 17 17 18 17 17 17 18 17 17 18 18 19 17 17 16 17 19 18 17 15 16 15 13
7 7 8 8 8 8 8 8 11 13 15 15 15 16 16 16 16 16 15 15 16 15 17 18 18 18 17 17 17 17 18 18 18 19 19 19 18 18 17 17 17 16 15 14 13
6 7 7 8 8 8 8 9 12 13 13 14 15 15 16 16 16 16 16 16 16 16 16 17 18 18 17 16 17 17 17 18 18 18 18 20 15 14 14 13 16 15 15 14 13
6 6 7 7 7 7 7 9 11 12 12 12 13 15 16 16 17 16 16 16 16 17 16 16 16 18 17 16 17 17 17 17 18 18 19 19 17 16 16 16 16 15 14 15 13
5 5 6 6 6 7 7 8 11 12 11 11 12 13 15 15 16 16 17 17 16 17 16 16 16 17 17 17 17 17 18 17 17 18 18 18 17 16 16 16 16 15 15 15 13
5 5 5 5 6 6 7 9 10 11 11 11 12 12 13 13 14 15 16 15 16 16 16 16 16 16 16 17 18 17 17 17 17 17 17 17 16 15 15 15 16 15 15 15 13
5 6 5 6 7 7 8 9 10 10 10 11 12 12 12 12 13 13 15 14 14 14 15 15 15 16 17 17 16 16 17 17 17 17 17 18 16 13 13 15 15 15 15 15 13
4 5 5 7 7 7 7 9 10 10 9 10 11 11 11 12 12 13 13 14 14 13 13 14 14 15 16 16 17 16 16 16 17 17 17 17 16 16 14 12 9 15 15 15 14
1 2 4 5 5 6 7 8 8 9 10 9 9 11 11 11 12 13 13 13 14 13 13 13 13 14 14 15 16 17 17 17 17 17 17 17 17 14 12 12 10 14 15 15 14
3 3 2 4 5 6 7 7 8 8 9 9 9 10 11 11 11 11 11 12 11 12 13 13 13 13 14 15 16 17 17 17 17 17 17 17 16 13 12 11 11 13 15 15 13

GFSSW_700_temp_036.txt.gz
Temp
12 12 12 12 12 12 13 13 13 13 14 14 14 14 15 15 15 15 16 16 16 17 17 16 16 16 16 16 16 15 17 17 17 17 17 17 17 16 16 16 16 15 15 14 14
12 12 12 12 12 12 13 13 13 13 14 14 14 14 15 15 15 15 15 16 16 16 17 16 16 16 16 16 16 17 17 18 18 17 16 17 17 17 16 16 16 16 15 14 14
11 12 12 12 12 12 13 13 13 13 14 14 14 14 15 15 15 15 16 16 16 17 17 16 16 16 16 16 16 17 17 18 18 18 17 17 17 17 17 17 16 16 16 15 14
11 12 12 12 12 12 13 13 13 13 14 14 14 15 15 15 15 15 16 16 16 16 16 16 16 16 16 16 17 17 18 18 18 18 18 18 17 17 16 16 17 16 16 15 14
11 12 12 12 12 12 13 13 13 13 14 14 14 15 15 15 15 15 16 16 16 16 17 16 16 16 16 16 17 17 18 18 18 18 18 17 18 17 16 16 16 16 15 15 15
11 11 12 12 12 12 13 13 13 13 14 14 14 14 15 15 15 15 16 16 16 16 16 16 16 16 16 17 17 17 18 18 18 18 18 18 18 18 17 16 16 16 16 15 15
11 11 12 12 12 12 13 13 13 13 14 14 14 14 15 15 15 15 15 15 16 16 16 16 17 16 16 17 17 17 18 18 18 18 18 18 18 17 18 17 17 16 15 15 15
11 11 11 12 12 12 13 13 13 13 14 14 14 14 15 15 15 15 15 15 15 16 16 17 17 17 17 17 17 18 17 18 18 18 18 18 18 18 17 17 16 16 16 15 14
10 11 11 12 12 12 13 13 13 13 14 14 14 14 15 15 15 15 15 15 16 16 16 16 16 16 17 17 17 17 18 18 19 19 18 18 18 17 17 17 16 16 16 15 14
10 10 11 11 12 12 12 12 13 13 14 14 14 14 14 14 15 15 15 15 16 15 16 16 16 16 16 17 18 17 18 18 18 18 18 18 18 17 17 17 16 16 16 15 14
10 10 10 11 11 11 12 12 13 13 14 14 14 14 14 14 14 15 15 15 15 15 16 16 16 17 17 17 17 17 18 19 19 19 19 19 19 18 17 17 16 16 16 15 15
9 10 10 10 11 11 11 12 12 13 14 14 14 14 14 15 15 14 15 15 15 15 15 15 16 17 17 17 17 18 18 18 19 18 18 19 19 19 18 17 17 17 16 15 15
9 9 10 10 10 10 10 11 11 12 13 14 14 15 14 14 15 14 14 15 15 15 15 15 16 16 16 17 17 17 18 18 18 18 18 18 18 18 18 17 17 17 16 15 15
9 9 9 10 10 10 10 11 12 12 12 15 15 15 14 14 15 15 15 14 15 15 15 15 16 17 17 17 17 17 18 17 18 18 18 18 17 18 18 18 17 17 16 16 16
8 9 9 9 10 10 10 11 11 11 10 15 15 15 15 15 16 15 15 14 15 15 14 16 16 16 17 17 17 17 17 17 17 17 17 18 17 18 17 17 17 17 16 16 15
8 8 9 9 9 10 10 10 10 11 11 14 15 15 15 14 15 14 14 14 14 15 15 15 16 16 17 17 17 17 17 17 17 17 16 17 17 17 17 17 17 16 16 16 15
8 8 8 9 9 9 10 9 9 10 13 14 14 15 15 15 15 14 14 14 14 14 15 15 16 16 16 17 17 17 17 16 14 13 13 17 16 17 17 17 16 16 16 16 15
8 8 8 8 9 9 9 8 9 12 13 14 14 14 15 15 15 15 14 14 14 14 14 15 16 16 16 16 17 17 17 16 13 11 15 17 17 17 17 16 16 16 16 15 15
7 8 8 8 8 8 8 8 10 12 12 12 13 14 14 14 14 15 14 14 15 15 14 15 15 16 16 16 17 17 16 17 16 15 15 16 16 16 16 16 16 15 15 15 15
7 7 8 7 8 8 8 9 10 11 11 12 12 13 14 15 14 14 15 15 15 15 15 15 15 16 16 17 17 17 17 17 16 13 14 14 15 16 15 16 16 14 15 14 14
6 6 7 7 7 7 8 9 10 11 11 11 11 12 12 13 14 15 15 15 15 15 15 15 15 17 16 17 17 17 17 16 16 16 12 10 14 15 15 16 15 14 14 14 13
5 6 5 6 6 7 8 9 9 10 10 10 11 12 12 13 14 14 15 15 15 16 15 15 15 15 16 17 16 16 17 17 16 16 16 15 14 16 15 16 16 15 14 15 14
5 4 5 5 6 6 7 8 8 10 11 11 11 11 12 12 13 13 14 14 15 16 16 16 15 16 16 16 16 16 16 16 17 17 16 15 13 15 15 15 15 16 15 15 14
4 4 4 4 5 5 6 7 8 9 11 10 10 11 12 12 12 13 13 13 14 15 16 16 16 16 16 16 15 15 16 15 16 16 16 16 15 14 15 15 15 15 15 14 14
3 3 3 4 4 5 5 7 7 8 10 10 10 11 11 12 12 12 12 13 13 14 14 15 15 15 15 15 15 15 16 15 15 16 16 16 16 16 15 13 12 13 13 13 13
3 3 4 4 5 5 6 7 7 8 8 10 10 11 11 11 10 11 12 12 13 13 14 14 14 15 15 15 15 15 16 16 16 15 15 15 15 13 11 12 13 13 13 13 12
3 3 4 4 5 6 4 5 7 7 8 9 10 10 11 10 10 11 12 11 12 13 13 13 14 14 14 15 15 15 15 15 15 15 14 15 15 13 11 12 13 13 13 12 12

GFSSW_700_temp_042.txt.gz
Temp
11 12 12 12 12 12 13 13 13 13 13 13 14 14 14 14 15 15 16 16 16 16 16 16 16 16 17 16 17 17 16 16 16 16 16 15 15 15 16 16 15 15 14 14 14
11 11 12 12 12 12 13 13 13 13 14 14 14 14 14 14 15 15 15 16 16 16 16 16 16 17 16 16 17 17 17 17 17 17 16 16 15 15 16 16 15 15 15 14 14
11 12 12 12 12 12 12 13 13 13 14 14 14 14 14 14 15 15 15 16 16 16 16 16 17 17 16 16 16 16 17 17 16 16 17 16 16 16 16 16 16 15 15 15 14
11 11 12 12 12 12 12 13 13 13 13 14 14 14 14 14 14 15 15 16 16 16 16 16 16 17 16 16 17 17 17 17 16 17 17 17 16 16 16 16 16 16 15 14 14
11 11 12 12 12 12 12 13 13 13 13 14 14 14 14 14 14 15 15 15 15 16 16 16 16 16 16 17 17 17 17 17 17 17 17 17 17 16 16 16 16 15 15 14 14
11 11 11 12 12 12 12 13 13 13 13 13 14 14 14 14 15 15 15 15 15 15 16 16 16 16 16 16 17 17 17 17 17 17 17 17 16 16 16 16 16 16 15 15 14
11 11 12 12 12 12 12 13 13 13 13 13 14 14 14 15 15 15 15 15 15 15 15 16 16 16 16 16 17 17 17 17 17 17 17 17 16 17 16 16 16 16 15 15 14
11 11 12 12 12 12 12 13 13 13 13 13 14 14 14 14 14 15 15 15 15 15 15 16 16 16 16 17 17 17 17 17 17 17 17 17 17 17 17 17 17 16 15 15 15
10 11 11 12 12 12 12 13 13 13 13 13 14 14 14 14 14 15 15 15 15 15 16 16 16 16 16 16 16 17 17 17 18 18 18 17 18 17 17 17 17 17 16 15 15
10 10 11 11 12 12 12 12 13 13 13 13 14 14 14 14 14 14 15 15 15 16 16 16 16 16 16 16 17 17 17 17 17 17 18 18 18 17 17 17 17 16 16 15 14
10 10 10 11 11 11 12 12 13 13 13 13 14 14 14 14 14 14 15 15 15 15 15 16 16 17 17 16 16 16 17 17 17 17 18 18 18 17 17 17 17 17 16 16 14
10 10 10 11 10 11 11 12 12 13 13 13 14 14 14 14 14 14 15 15 15 15 15 16 16 16 16 16 16 16 17 17 17 17 17 18 17 17 17 18 18 17 16 16 15
9 10 10 10 10 10 11 11 12 12 12 14 14 14 13 14 14 14 14 14 14 14 14 15 15 16 16 16 16 16 16 17 17 17 17 17 18 17 17 18 18 18 16 15 15
9 9 10 10 10 10 10 11 11 11 12 14 14 14 14 14 14 14 14 14 14 14 14 15 15 15 15 16 16 16 16 16 17 17 17 17 17 17 18 17 18 18 17 16 15
8 9 9 9 10 10 10 10 10 10 9 13 14 14 14 14 14 15 14 14 14 14 14 14 15 15 16 16 16 16 16 16 16 16 17 16 16 17 17 17 17 17 17 16 15
8 8 9 9 9 9 9 9 10 10 10 13 13 13 14 14 14 14 14 14 13 13 14 14 14 15 16 16 16 16 16 16 16 16 16 16 15 17 17 17 17 17 16 15 15
8 8 8 8 9 9 9 8 9 9 12 12 12 12 13 14 13 14 14 14 13 13 14 14 15 15 15 16 16 16 16 15 14 11 12 15 15 17 16 16 16 16 16 15 15
8 8 8 8 8 8 8 8 8 10 12 12 12 12 13 13 13 14 13 13 13 13 14 14 15 15 15 16 16 16 16 15 12 9 13 15 16 17 16 16 16 16 16 15 15
7 7 8 8 8 8 7 7 9 10 10 12 12 12 13 13 13 13 13 13 13 13 13 14 14 15 15 15 16 16 16 16 16 13 13 15 15 17 17 16 16 16 16 16 15
7 7 7 7 7 7 7 8 9 9 10 10 11 12 12 13 13 13 13 14 14 14 14 14 14 15 15 15 16 16 16 15 15 11 12 14 15 16 16 16 16 16 15 15 15
6 6 7 7 7 7 7 7 8 8 10 10 10 11 11 12 12 13 13 14 14 14 14 14 14 14 15 15 16 16 16 15 15 15 11 9 15 16 16 15 15 16 16 15 15
5 6 6 6 6 6 7 7 8 8 9 9 10 10 11 11 12 12 13 13 14 14 14 14 14 14 15 15 15 15 16 16 16 14 14 13 16 16 16 16 16 16 15 15 15
5 5 5 5 5 5 5 6 7 8 8 9 9 10 10 11 11 12 13 13 14 14 14 14 14 13 14 15 15 15 16 16 16 15 15 13 16 16 16 16 16 15 15 15 15
4 4 4 4 4 4 5 6 6 7 8 9 9 10 10 11 11 12 12 13 14 14 14 14 14 14 14 15 15 15 15 15 16 15 15 15 16 16 16 16 15 15 15 15 14
3 3 4 4 4 4 4 5 6 7 7 8 9 10 10 10 11 12 12 13 13 14 15 14 14 14 14 15 15 15 15 15 15 15 15 15 15 16 16 16 16 15 14 14 14
3 3 3 3 3 4 4 5 6 6 7 8 8 10 10 10 11 12 12 12 13 13 14 14 14 14 14 14 14 14 15 15 15 15 15 15 15 16 16 16 16 14 14 13 13
3 3 3 3 3 4 4 4 5 5 7 7 8 9 10 10 11 11 12 12 13 13 13 13 14 14 13 13 13 13 14 14 15 15 14 15 15 15 16 15 14 13 13 13 13

GFSSW_700_temp_045.txt.gz
Temp
11 12 12 12 12 12 13 13 13 13 13 13 14 14 14 15 15 15 16 16 16 16 16 16 16 15 15 15 16 16 16 16 16 16 16 15 15 15 15 15 14 14 14 14 14
11 12 12 12 12 12 13 13 13 13 13 13 14 14 14 15 15 15 16 16 16 16 16 16 16 16 16 16 16 16 16 16 16 17 17 16 15 15 15 15 15 14 14 14 14
11 12 12 12 12 12 12 13 13 13 14 14 14 14 14 14 15 15 15 16 16 16 16 16 16 16 16 16 16 17 16 16 17 17 16 16 16 15 15 15 15 14 14 14 13
11 11 12 12 12 12 13 13 13 13 14 14 14 14 14 14 14 15 15 15 16 16 16 16 16 16 16 16 17 17 17 17 17 17 16 16 16 16 15 15 15 15 14 14 13
11 11 12 12 12 12 12 13 13 13 13 14 14 14 14 14 14 14 15 15 16 16 16 16 16 16 16 17 17 17 17 17 17 17 17 17 16 15 15 15 15 15 15 14 13
11 11 11 12 12 12 12 12 13 13 13 13 14 14 14 14 14 14 15 15 15 16 16 16 16 16 16 17 17 17 17 17 17 17 17 17 17 16 16 16 15 15 15 14 13
11 11 11 12 12 12 12 12 13 13 13 13 14 14 15 15 15 15 14 15 15 15 16 16 16 16 16 16 17 17 17 17 17 17 17 17 17 17 17 16 15 15 15 15 13
11 11 11 12 12 12 12 12 13 13 13 13 14 14 14 14 15 15 14 15 15 15 15 15 16 16 16 16 16 17 17 17 17 17 17 17 17 17 17 17 16 15 15 14 14
10 11 11 11 12 12 12 12 13 13 13 13 14 14 14 14 14 15 14 15 15 15 15 15 16 16 16 16 16 16 17 17 17 17 17 17 18 18 17 17 17 16 15 14 14
10 10 11 11 11 12 12 12 13 13 13 13 13 14 14 14 14 14 14 15 15 15 15 15 16 16 16 16 17 16 17 17 17 16 17 18 18 18 18 17 17 16 15 14 13
10 10 10 11 11 11 12 12 12 13 13 13 13 14 14 14 14 14 14 14 14 15 15 16 16 16 16 16 16 16 17 17 17 17 17 17 17 17 18 18 18 17 16 15 13
9 10 10 10 10 11 11 12 12 12 13 13 13 14 14 14 14 14 14 14 14 14 15 15 15 16 16 16 16 16 17 17 17 17 17 17 17 17 18 18 17 17 16 15 14
9 10 10 10 10 10 11 11 11 12 13 13 14 14 13 14 14 14 14 14 14 14 15 15 15 15 15 16 16 16 16 16 17 17 17 17 17 17 17 18 17 17 16 15 14
9 9 9 10 10 10 11 11 11 11 12 14 14 14 14 14 14 14 14 13 14 14 14 15 14 15 15 16 16 16 16 16 16 17 17 17 18 17 17 17 17 17 17 16 14
8 8 9 9 9 10 10 10 10 11 12 13 13 13 14 14 14 14 14 13 14 14 14 14 14 14 15 16 16 16 16 16 16 16 16 16 17 17 17 17 17 17 17 16 15
8 8 8 9 9 9 9 10 10 11 11 12 12 13 13 13 13 14 14 13 13 13 13 14 14 15 15 16 16 16 16 16 16 16 17 15 15 17 17 17 17 17 16 16 15
8 8 8 9 9 9 9 9 9 10 12 12 12 12 12 13 12 13 14 13 13 13 13 14 14 15 15 15 16 16 16 16 16 16 17 15 15 17 16 17 16 16 16 16 15
8 8 8 8 8 8 8 8 8 10 11 11 12 12 12 13 13 12 13 13 13 13 13 13 14 15 15 15 16 16 16 16 15 16 16 15 16 17 16 17 16 16 16 16 15
7 8 8 8 8 8 8 7 9 10 10 11 12 12 12 13 12 12 12 13 13 13 13 14 14 15 15 15 15 15 15 16 16 14 14 15 16 17 17 17 16 16 16 15 15
7 7 8 8 7 7 7 8 8 9 10 10 11 11 12 12 12 13 13 13 13 13 13 14 14 15 15 15 15 16 16 15 15 15 15 15 15 16 17 16 16 16 16 15 15
6 7 7 7 7 7 7 7 8 8 9 9 10 10 11 11 12 12 13 13 14 13 13 13 13 14 14 15 15 15 15 15 15 15 16 16 16 16 16 16 16 16 16 15 14
6 6 6 6 6 6 6 6 7 8 8 9 10 10 10 11 11 12 13 13 14 13 13 14 14 13 14 14 14 15 15 15 16 14 15 14 16 16 16 16 16 15 15 15 15
5 5 5 5 5 6 6 6 6 7 7 8 9 10 10 10 11 11 12 13 13 14 14 14 13 13 14 14 14 14 15 16 16 16 15 16 16 16 16 16 16 16 15 15 15
4 4 4 4 5 5 6 6 6 6 7 7 9 9 10 10 11 11 12 12 13 14 14 14 14 14 14 15 15 15 15 16 16 15 15 15 16 16 16 16 16 16 15 15 14
4 4 4 3 4 4 5 5 6 6 6 7 8 9 10 10 11 11 11 12 12 13 14 14 14 14 14 14 14 15 15 15 16 16 16 15 16 15 15 15 16 16 15 14 14
4 3 3 3 4 4 4 5 5 5 6 7 8 9 10 10 10 11 11 12 12 13 14 13 14 14 14 14 14 14 15 15 15 15 15 15 15 15 15 15 15 15 14 13 13
3 3 3 3 3 4 4 4 4 5 6 6 7 8 9 10 10 11 11 12 12 12 12 13 13 14 13 14 14 13 14 14 15 15 15 15 15 15 15 15 15 14 13 13 13